Flag for U.S.A. Weather past 2 weeks in Wichita Falls, Texas, U.S.A.

Now
83 °F

Clear.


Feels Like: 85 °F
Forecast: 73 / 95 °F
Wind: 10 mph from Southeast

Location: Wichita Falls - Sheppard Air Force Base

Current Time: Aug 28, 2014 at 12:10:23 AM

Latest Report: Aug 27, 2014 at 11:52 PM


Visibility: 10 mi

Pressure: 29.94 "Hg

Humidity: 55%

Dew point: 65 °F

Location of Wichita FallsLocation

Historic Weather in Wichita Falls — Graph

°F

Wichita Falls temperature yesterday

Maximum temperature yesterday: 98 °F (at 4:52 PM)
Minimum temperature yesterday: 72 °F (at 6:52 AM)
Average temperature yesterday: 86 °F

Past Weeks' High & Low Weather Summary

 TemperatureHumidityPressure
High104 °F (Aug 22, 3:52 PM)84% (Aug 13, 6:52 AM)30.10 "Hg (Aug 13, 6:52 AM)
Low66 °F (Aug 13, 6:52 AM)16% (Aug 22, 5:52 PM)29.75 "Hg (Aug 19, 4:52 PM)
Average86 °F48%29.89 "Hg
* Reported Aug 12 10:52 PM — Aug 27 10:52 PM, Wichita Falls, Weather by CustomWeather, © 2014

Note: Actual official high and low records may vary slightly from our data, if they occured in-between our weather recording intervals... More about our weather records

Advertising

Wichita Falls weather history for previous 24 hours

 ConditionsComfort  
Time TempWeatherWind HumidityBarometerVisibility
10:52 PM
Aug 27
84 °FClear.12 mph53%29.94 "Hg10 mi
9:52 PM85 °FClear.10 mph50%29.94 "Hg10 mi
8:52 PM87 °FSunny.10 mph46%29.92 "Hg10 mi
7:52 PM91 °FSunny.16 mph39%29.89 "Hg10 mi
6:52 PM94 °FPassing clouds.16 mph35%29.89 "Hg10 mi
5:52 PM97 °FScattered clouds.13 mph32%29.89 "Hg10 mi
4:52 PM98 °FScattered clouds.13 mph32%29.90 "Hg10 mi
3:52 PM97 °FScattered clouds.14 mph32%29.93 "Hg10 mi
2:52 PM97 °FScattered clouds.7 mph33%29.96 "Hg10 mi
1:52 PM97 °FPassing clouds.12 mph33%29.98 "Hg10 mi
12:52 PM93 °FPassing clouds.6 mph40%30.00 "Hg10 mi
11:52 AM90 °FPassing clouds.9 mph47%30.02 "Hg10 mi
10:52 AM88 °FSunny.8 mph52%30.03 "Hg10 mi
9:52 AM86 °FSunny.8 mph57%30.03 "Hg10 mi
8:52 AM80 °FSunny.9 mph69%30.03 "Hg9 mi
7:52 AM74 °FClear.6 mph79%30.02 "Hg8 mi
6:52 AM72 °FClear.6 mph81%30.00 "Hg9 mi
5:52 AM75 °FClear.3 mph76%29.98 "Hg10 mi
4:52 AM74 °FClear.5 mph76%29.98 "Hg10 mi
3:52 AM74 °FClear.6 mph76%29.98 "Hg10 mi
2:52 AM78 °FClear.8 mph66%29.98 "Hg10 mi
1:52 AM79 °FClear.8 mph65%29.98 "Hg10 mi
12:52 AM80 °FClear.7 mph60%29.98 "Hg10 mi
Weather by CustomWeather, © 2014

See weather overviewHow to use our weather pages